DAL9110 KMFE-KPIT

Flight info

Callsign DAL9110
Flight time 2h 41m
Altitude 35000
Route CRP RAECN KAMEN XESSS BETIE EWO HNN FEWGA7
Aircraft B738/M-VGDW/C

Departure

Time 2026-05-06 02:11
Airport McAllen Miller International Airport (KMFE)

Arrival

Time 2026-05-06 04:53
Airport Pittsburgh International Airport (KPIT)
Time Latitude Longitude Altitude Speed Heading
2026-05-06 02:00 26.17833 -98.23924 104 ft 0 kts 343°
2026-05-06 02:08 26.17835 -98.23927 104 ft 1 kts 318°
2026-05-06 02:08 26.17837 -98.23945 104 ft 4 kts 272°
2026-05-06 02:08 26.17838 -98.23997 104 ft 8 kts 267°
2026-05-06 02:08 26.17855 -98.24074 104 ft 12 kts 308°
2026-05-06 02:09 26.17928 -98.24149 104 ft 16 kts 319°
2026-05-06 02:09 26.18016 -98.24231 105 ft 15 kts 320°
2026-05-06 02:09 26.18097 -98.24303 107 ft 13 kts 322°
2026-05-06 02:09 26.18168 -98.24365 108 ft 12 kts 321°
2026-05-06 02:10 26.18235 -98.24427 107 ft 12 kts 320°
2026-05-06 02:10 26.18299 -98.24486 107 ft 11 kts 319°
2026-05-06 02:10 26.18314 -98.24563 107 ft 10 kts 240°
2026-05-06 02:10 26.18258 -98.24591 107 ft 9 kts 162°
2026-05-06 02:11 26.18117 -98.24471 108 ft 59 kts 141°
2026-05-06 02:11 26.17580 -98.23982 101 ft 136 kts 140°
2026-05-06 02:11 26.16747 -98.23212 418 ft 170 kts 140°
2026-05-06 02:11 26.15934 -98.22218 1272 ft 179 kts 116°
2026-05-06 02:12 26.15887 -98.20875 2135 ft 190 kts 78°
2026-05-06 02:12 26.16800 -98.19668 2546 ft 226 kts 35°
2026-05-06 02:12 26.18418 -98.19282 2958 ft 256 kts 357°
2026-05-06 02:12 26.20238 -98.19632 3569 ft 271 kts 348°
2026-05-06 02:13 26.22099 -98.20035 4257 ft 281 kts 354°
2026-05-06 02:13 26.24050 -98.20110 5087 ft 284 kts
2026-05-06 02:13 26.26008 -98.19730 6006 ft 285 kts 15°
2026-05-06 02:13 26.27866 -98.19029 6863 ft 287 kts 20°
2026-05-06 02:14 26.29723 -98.18180 7580 ft 294 kts 22°
2026-05-06 02:14 26.31630 -98.17276 8319 ft 299 kts 22°
2026-05-06 02:14 26.33530 -98.16385 8999 ft 304 kts 21°
2026-05-06 02:14 26.35506 -98.15474 9678 ft 309 kts 21°
2026-05-06 02:15 26.37514 -98.14561 10286 ft 316 kts 20°
2026-05-06 02:15 26.39609 -98.13614 10689 ft 332 kts 20°
2026-05-06 02:15 26.41785 -98.12633 11090 ft 346 kts 20°
2026-05-06 02:15 26.44066 -98.11603 11389 ft 363 kts 20°
2026-05-06 02:16 26.46471 -98.10516 11743 ft 377 kts 20°
2026-05-06 02:16 26.48922 -98.09406 12295 ft 383 kts 20°
2026-05-06 02:16 26.51402 -98.08282 12913 ft 388 kts 19°
2026-05-06 02:16 26.53918 -98.07142 13580 ft 392 kts 19°
2026-05-06 02:17 26.56442 -98.05998 14245 ft 395 kts 19°
2026-05-06 02:17 26.58992 -98.04842 14863 ft 398 kts 19°
2026-05-06 02:17 26.61558 -98.03680 15509 ft 401 kts 19°
2026-05-06 02:17 26.64158 -98.02501 16116 ft 405 kts 19°
2026-05-06 02:18 26.66796 -98.01302 16695 ft 409 kts 19°
2026-05-06 02:18 26.69447 -98.00096 17247 ft 414 kts 19°
2026-05-06 02:18 26.72139 -97.98872 17807 ft 418 kts 19°
2026-05-06 02:18 26.74834 -97.97645 18387 ft 421 kts 19°
2026-05-06 02:19 26.77561 -97.96404 18950 ft 424 kts 19°
2026-05-06 02:19 26.80321 -97.95148 19491 ft 428 kts 19°
2026-05-06 02:19 26.83074 -97.93895 20044 ft 432 kts 18°
2026-05-06 02:19 26.85879 -97.92619 20582 ft 435 kts 18°
2026-05-06 02:20 26.91523 -97.90049 21525 ft 445 kts 18°
2026-05-06 02:20 26.94406 -97.88734 22043 ft 448 kts 18°
2026-05-06 02:20 26.97315 -97.87408 22494 ft 453 kts 18°
2026-05-06 02:21 27.00266 -97.86063 22988 ft 457 kts 18°
2026-05-06 02:21 27.03208 -97.84719 23425 ft 461 kts 18°
2026-05-06 02:21 27.06176 -97.83363 23890 ft 465 kts 18°
2026-05-06 02:21 27.09217 -97.81973 24308 ft 470 kts 18°
2026-05-06 02:22 27.12233 -97.80591 24809 ft 472 kts 18°
2026-05-06 02:22 27.15271 -97.79198 25256 ft 475 kts 18°
2026-05-06 02:22 27.18361 -97.77781 25687 ft 479 kts 17°
2026-05-06 02:22 27.21431 -97.76373 26079 ft 483 kts 17°
2026-05-06 02:23 27.24557 -97.74939 26428 ft 488 kts 17°
2026-05-06 02:23 27.27714 -97.73490 26871 ft 490 kts 17°
2026-05-06 02:23 27.30895 -97.72028 27276 ft 493 kts 17°
2026-05-06 02:23 27.34081 -97.70564 27588 ft 498 kts 17°
2026-05-06 02:24 27.37261 -97.69099 28198 ft 496 kts 17°
2026-05-06 02:24 27.40456 -97.67623 28796 ft 493 kts 17°
2026-05-06 02:24 27.43643 -97.66151 29323 ft 492 kts 17°
2026-05-06 02:24 27.46816 -97.64685 29808 ft 492 kts 17°
2026-05-06 02:25 27.49945 -97.63240 30307 ft 491 kts 16°
2026-05-06 02:25 27.53117 -97.61777 30747 ft 491 kts 16°
2026-05-06 02:25 27.56267 -97.60322 31202 ft 490 kts 16°
2026-05-06 02:25 27.59428 -97.58861 31672 ft 489 kts 16°
2026-05-06 02:26 27.62573 -97.57406 32139 ft 487 kts 16°
2026-05-06 02:26 27.65674 -97.55969 32581 ft 486 kts 15°
2026-05-06 02:26 27.68805 -97.54519 33015 ft 485 kts 15°
2026-05-06 02:26 27.71931 -97.53071 33497 ft 483 kts 15°
2026-05-06 02:27 27.75007 -97.51645 34004 ft 481 kts 15°
2026-05-06 02:27 27.78115 -97.50201 34561 ft 477 kts 15°
2026-05-06 02:27 27.81146 -97.48794 34813 ft 478 kts 15°
2026-05-06 02:28 27.87298 -97.45854 34810 ft 478 kts 19°
2026-05-06 02:28 27.93107 -97.41920 34812 ft 487 kts 31°
2026-05-06 02:29 27.98472 -97.36977 34813 ft 491 kts 36°
2026-05-06 02:29 28.03618 -97.31823 34816 ft 492 kts 38°
2026-05-06 02:30 28.08749 -97.26650 34817 ft 492 kts 37°
2026-05-06 02:30 28.13861 -97.21541 34810 ft 493 kts 37°
2026-05-06 02:31 28.19026 -97.16419 34815 ft 492 kts 37°
2026-05-06 02:31 28.24188 -97.11319 34813 ft 493 kts 37°
2026-05-06 02:32 28.29401 -97.06169 34821 ft 492 kts 36°
2026-05-06 02:32 28.34565 -97.01063 34838 ft 492 kts 36°
2026-05-06 02:33 28.39745 -96.95936 34838 ft 492 kts 36°
2026-05-06 02:33 28.41454 -96.94242 34839 ft 493 kts 36°
2026-05-06 02:34 28.50097 -96.85666 34833 ft 493 kts 36°
2026-05-06 02:34 28.55242 -96.80550 34825 ft 494 kts 36°
2026-05-06 02:35 28.60428 -96.75391 34830 ft 493 kts 36°
2026-05-06 02:35 28.65613 -96.70222 34830 ft 494 kts 36°
2026-05-06 02:36 28.70775 -96.65071 34829 ft 494 kts 36°
2026-05-06 02:36 28.75943 -96.59907 34830 ft 494 kts 36°
2026-05-06 02:37 28.81113 -96.54732 34832 ft 494 kts 36°
2026-05-06 02:37 28.86270 -96.49561 34834 ft 493 kts 36°
2026-05-06 02:38 28.91401 -96.44414 34834 ft 494 kts 35°
2026-05-06 02:38 28.96580 -96.39212 34839 ft 494 kts 36°
2026-05-06 02:39 29.01759 -96.33997 34840 ft 495 kts 36°
2026-05-06 02:39 29.06917 -96.28799 34837 ft 495 kts 36°
2026-05-06 02:40 29.12082 -96.23586 34840 ft 495 kts 36°
2026-05-06 02:40 29.17234 -96.18379 34847 ft 496 kts 36°
2026-05-06 02:41 29.22409 -96.13139 34853 ft 496 kts 36°
2026-05-06 02:41 29.27568 -96.07912 34849 ft 495 kts 36°
2026-05-06 02:42 29.32695 -96.02707 34861 ft 493 kts 36°
2026-05-06 02:42 29.37843 -95.97476 34862 ft 495 kts 36°
2026-05-06 02:43 29.42988 -95.92239 34859 ft 494 kts 36°
2026-05-06 02:43 29.48109 -95.87023 34867 ft 495 kts 35°
2026-05-06 02:44 29.53280 -95.81748 34863 ft 495 kts 35°
2026-05-06 02:44 29.58402 -95.76512 34864 ft 494 kts 35°
2026-05-06 02:45 29.63526 -95.71268 34863 ft 493 kts 35°
2026-05-06 02:45 29.68621 -95.66046 34857 ft 495 kts 35°
2026-05-06 02:46 29.73770 -95.60764 34859 ft 494 kts 35°
2026-05-06 02:46 29.78905 -95.55487 34862 ft 496 kts 35°
2026-05-06 02:47 29.84031 -95.50210 34853 ft 495 kts 35°
2026-05-06 02:47 29.89127 -95.44956 34857 ft 494 kts 35°
2026-05-06 02:48 29.94259 -95.39658 34857 ft 493 kts 35°
2026-05-06 02:48 29.99370 -95.34376 34856 ft 494 kts 36°
2026-05-06 02:49 30.04478 -95.29092 34860 ft 496 kts 36°
2026-05-06 02:49 30.09618 -95.23769 34858 ft 495 kts 35°
2026-05-06 02:50 30.14744 -95.18561 34856 ft 494 kts 34°
2026-05-06 02:50 30.19954 -95.13341 34856 ft 495 kts 34°
2026-05-06 02:51 30.25165 -95.08113 34862 ft 494 kts 34°
2026-05-06 02:51 30.30328 -95.02915 34869 ft 495 kts 34°
2026-05-06 02:52 30.35502 -94.97688 34863 ft 493 kts 34°
2026-05-06 02:52 30.40690 -94.92429 34865 ft 495 kts 33°
2026-05-06 02:53 30.45850 -94.87199 34861 ft 495 kts 33°
2026-05-06 02:53 30.51042 -94.81925 34866 ft 496 kts 33°
2026-05-06 02:54 30.56219 -94.76658 34863 ft 497 kts 33°
2026-05-06 02:54 30.61407 -94.71367 34865 ft 496 kts 33°
2026-05-06 02:55 30.66581 -94.66084 34870 ft 495 kts 33°
2026-05-06 02:55 30.71752 -94.60799 34874 ft 494 kts 33°
2026-05-06 02:56 30.76899 -94.55527 34886 ft 495 kts 33°
2026-05-06 02:56 30.82055 -94.50246 34886 ft 494 kts 33°
2026-05-06 02:57 30.87201 -94.44963 34880 ft 495 kts 33°
2026-05-06 02:57 30.92368 -94.39648 34890 ft 493 kts 33°
2026-05-06 02:58 30.97502 -94.34360 34886 ft 494 kts 33°
2026-05-06 02:58 31.02656 -94.29048 34883 ft 494 kts 33°
2026-05-06 02:59 31.07782 -94.23756 34871 ft 495 kts 33°
2026-05-06 02:59 31.12957 -94.18402 34863 ft 496 kts 33°
2026-05-06 03:00 31.18109 -94.13065 34864 ft 496 kts 33°
2026-05-06 03:00 31.23239 -94.07742 34864 ft 496 kts 33°
2026-05-06 03:01 31.28422 -94.02358 34866 ft 497 kts 33°
2026-05-06 03:01 31.33571 -93.97000 34862 ft 496 kts 33°
2026-05-06 03:02 31.38743 -93.91612 34864 ft 497 kts 33°
2026-05-06 03:02 31.43932 -93.86204 34864 ft 508 kts 33°
2026-05-06 03:03 31.49265 -93.80649 34869 ft 521 kts 33°
2026-05-06 03:03 31.54742 -93.74927 34875 ft 531 kts 33°
2026-05-06 03:04 31.60217 -93.69172 34871 ft 529 kts 33°
2026-05-06 03:04 31.65676 -93.63414 34876 ft 528 kts 33°
2026-05-06 03:05 31.71181 -93.57614 34871 ft 531 kts 33°
2026-05-06 03:05 31.76692 -93.51801 34866 ft 530 kts 33°
2026-05-06 03:06 31.82147 -93.46042 34868 ft 530 kts 33°
2026-05-06 03:06 31.87646 -93.40228 34867 ft 532 kts 33°
2026-05-06 03:07 31.93122 -93.34426 34862 ft 530 kts 33°
2026-05-06 03:07 31.98588 -93.28627 34862 ft 532 kts 33°
2026-05-06 03:08 32.04071 -93.22794 34862 ft 528 kts 33°
2026-05-06 03:08 32.09513 -93.17002 34863 ft 531 kts 33°
2026-05-06 03:09 32.14981 -93.11173 34860 ft 529 kts 33°
2026-05-06 03:09 32.20436 -93.05345 34865 ft 528 kts 33°
2026-05-06 03:10 32.25872 -92.99523 34851 ft 527 kts 33°
2026-05-06 03:10 32.31316 -92.93695 34845 ft 531 kts 33°
2026-05-06 03:11 32.36750 -92.87859 34844 ft 528 kts 33°
2026-05-06 03:11 32.42201 -92.81992 34847 ft 528 kts 33°
2026-05-06 03:12 32.47630 -92.76148 34847 ft 527 kts 33°
2026-05-06 03:12 32.53011 -92.70328 34848 ft 521 kts 33°
2026-05-06 03:13 32.58393 -92.64517 34849 ft 527 kts 33°
2026-05-06 03:13 32.63761 -92.58709 34841 ft 524 kts 33°
2026-05-06 03:14 32.69040 -92.52599 34839 ft 532 kts 39°
2026-05-06 03:14 32.73893 -92.45959 34839 ft 539 kts 42°
2026-05-06 03:15 32.78618 -92.39093 34831 ft 534 kts 43°
2026-05-06 03:15 32.83280 -92.32288 34834 ft 533 kts 43°
2026-05-06 03:16 32.88012 -92.25470 34835 ft 536 kts 42°
2026-05-06 03:16 32.92775 -92.18661 34828 ft 534 kts 42°
2026-05-06 03:17 32.97516 -92.11903 34827 ft 534 kts 42°
2026-05-06 03:17 33.02242 -92.05157 34827 ft 532 kts 42°
2026-05-06 03:18 33.06987 -91.98375 34836 ft 534 kts 42°
2026-05-06 03:18 33.11733 -91.91579 34845 ft 532 kts 42°
2026-05-06 03:19 33.16434 -91.84827 34843 ft 531 kts 41°
2026-05-06 03:19 33.21149 -91.78048 34842 ft 533 kts 41°
2026-05-06 03:20 33.28218 -91.67857 34847 ft 532 kts 41°
2026-05-06 03:20 33.32941 -91.61031 34844 ft 533 kts 41°
2026-05-06 03:21 33.37648 -91.54217 34839 ft 531 kts 41°
2026-05-06 03:21 33.42343 -91.47406 34841 ft 534 kts 41°
2026-05-06 03:22 33.47075 -91.40530 34834 ft 531 kts 41°
2026-05-06 03:22 33.51752 -91.33713 34827 ft 532 kts 42°
2026-05-06 03:23 33.56436 -91.26886 34827 ft 532 kts 42°
2026-05-06 03:23 33.61125 -91.20035 34824 ft 534 kts 42°
2026-05-06 03:24 33.65836 -91.13139 34821 ft 533 kts 42°
2026-05-06 03:24 33.70522 -91.06261 34828 ft 533 kts 42°
2026-05-06 03:25 33.75224 -90.99354 34816 ft 533 kts 42°
2026-05-06 03:25 33.79902 -90.92462 34817 ft 534 kts 41°
2026-05-06 03:26 33.84593 -90.85540 34825 ft 535 kts 42°
2026-05-06 03:26 33.89302 -90.78581 34816 ft 535 kts 42°
2026-05-06 03:27 33.93980 -90.71659 34815 ft 537 kts 42°
2026-05-06 03:27 33.98687 -90.64668 34812 ft 533 kts 41°
2026-05-06 03:28 34.03354 -90.57726 34809 ft 535 kts 41°
2026-05-06 03:28 34.08042 -90.50751 34819 ft 539 kts 42°
2026-05-06 03:29 34.12738 -90.43742 34821 ft 536 kts 41°
2026-05-06 03:29 34.17404 -90.36754 34824 ft 535 kts 41°
2026-05-06 03:30 34.22030 -90.29820 34823 ft 534 kts 42°
2026-05-06 03:30 34.26701 -90.22803 34827 ft 535 kts 41°
2026-05-06 03:31 34.31346 -90.15823 34839 ft 536 kts 42°
2026-05-06 03:31 34.36130 -90.08978 34841 ft 530 kts 37°
2026-05-06 03:32 34.41195 -90.02663 34843 ft 522 kts 34°
2026-05-06 03:32 34.46431 -89.96497 34851 ft 527 kts 33°
2026-05-06 03:33 34.51684 -89.90296 34838 ft 521 kts 34°
2026-05-06 03:33 34.56866 -89.84106 34837 ft 524 kts 34°
2026-05-06 03:34 34.61995 -89.77907 34842 ft 522 kts 34°
2026-05-06 03:34 34.67140 -89.71667 34839 ft 523 kts 34°
2026-05-06 03:35 34.72223 -89.65472 34828 ft 522 kts 34°
2026-05-06 03:35 34.77368 -89.59197 34825 ft 524 kts 34°
2026-05-06 03:36 34.82513 -89.52909 34828 ft 522 kts 34°
2026-05-06 03:36 34.87586 -89.46693 34831 ft 519 kts 34°
2026-05-06 03:37 34.92725 -89.40398 34828 ft 522 kts 34°
2026-05-06 03:37 34.97780 -89.34187 34829 ft 516 kts 34°
2026-05-06 03:38 35.02888 -89.27904 34827 ft 521 kts 34°
2026-05-06 03:38 35.07984 -89.21632 34831 ft 522 kts 35°
2026-05-06 03:39 35.13054 -89.15371 34827 ft 518 kts 35°
2026-05-06 03:39 35.18144 -89.09066 34828 ft 518 kts 34°
2026-05-06 03:40 35.23193 -89.02809 34829 ft 518 kts 34°
2026-05-06 03:40 35.28301 -88.96487 34823 ft 522 kts 34°
2026-05-06 03:41 35.33367 -88.90173 34825 ft 517 kts 34°
2026-05-06 03:41 35.38438 -88.83854 34828 ft 523 kts 35°
2026-05-06 03:42 35.43525 -88.77506 34828 ft 523 kts 34°
2026-05-06 03:42 35.48557 -88.71195 34830 ft 516 kts 34°
2026-05-06 03:43 35.53618 -88.64848 34834 ft 525 kts 34°
2026-05-06 03:43 35.58716 -88.58446 34826 ft 519 kts 35°
2026-05-06 03:44 35.63812 -88.52032 34833 ft 522 kts 34°
2026-05-06 03:44 35.68852 -88.45673 34839 ft 521 kts 34°
2026-05-06 03:45 35.73922 -88.39260 34841 ft 523 kts 34°
2026-05-06 03:45 35.78979 -88.32849 34842 ft 523 kts 35°
2026-05-06 03:46 35.84058 -88.26404 34826 ft 526 kts 36°
2026-05-06 03:46 35.89159 -88.19935 34815 ft 526 kts 35°
2026-05-06 03:47 35.94239 -88.13459 34812 ft 524 kts 35°
2026-05-06 03:47 35.99317 -88.06970 34812 ft 520 kts 35°
2026-05-06 03:48 36.04342 -88.00546 34811 ft 521 kts 35°
2026-05-06 03:48 36.09404 -87.94077 34820 ft 522 kts 36°
2026-05-06 03:49 36.14460 -87.87547 34810 ft 528 kts 37°
2026-05-06 03:49 36.19295 -87.80765 34812 ft 527 kts 39°
2026-05-06 03:50 36.24046 -87.73815 34817 ft 531 kts 39°
2026-05-06 03:50 36.28791 -87.66861 34826 ft 529 kts 39°
2026-05-06 03:51 36.33526 -87.59951 34823 ft 524 kts 39°
2026-05-06 03:51 36.38248 -87.53108 34828 ft 527 kts 39°
2026-05-06 03:52 36.43033 -87.46195 34828 ft 527 kts 39°
2026-05-06 03:52 36.47810 -87.39275 34837 ft 524 kts 39°
2026-05-06 03:53 36.52555 -87.32396 34827 ft 527 kts 40°
2026-05-06 03:53 36.57323 -87.25459 34834 ft 528 kts 39°
2026-05-06 03:54 36.62090 -87.18515 34827 ft 528 kts 40°
2026-05-06 03:54 36.66852 -87.11570 34818 ft 530 kts 39°
2026-05-06 03:55 36.71616 -87.04594 34816 ft 527 kts 40°
2026-05-06 03:55 36.76412 -86.97564 34820 ft 532 kts 40°
2026-05-06 03:56 36.81196 -86.90540 34819 ft 530 kts 40°
2026-05-06 03:56 36.85947 -86.83543 34816 ft 528 kts 39°
2026-05-06 03:57 36.90673 -86.76553 34820 ft 525 kts 40°
2026-05-06 03:57 36.95433 -86.69519 34820 ft 529 kts 40°
2026-05-06 03:58 37.00157 -86.62509 34819 ft 527 kts 40°
2026-05-06 03:58 37.04857 -86.55517 34825 ft 527 kts 40°
2026-05-06 03:59 37.09558 -86.48510 34832 ft 523 kts 40°
2026-05-06 03:59 37.14289 -86.41459 34827 ft 525 kts 40°
2026-05-06 04:00 37.18941 -86.34495 34824 ft 521 kts 40°
2026-05-06 04:00 37.23630 -86.27486 34818 ft 527 kts 40°
2026-05-06 04:01 37.28308 -86.20467 34818 ft 523 kts 41°
2026-05-06 04:01 37.32972 -86.13457 34818 ft 524 kts 40°
2026-05-06 04:02 37.37632 -86.06434 34823 ft 525 kts 41°
2026-05-06 04:02 37.42283 -85.99397 34820 ft 524 kts 40°
2026-05-06 04:03 37.46954 -85.92320 34823 ft 523 kts 41°
2026-05-06 04:03 37.51617 -85.85251 34825 ft 524 kts 40°
2026-05-06 04:04 37.56244 -85.78210 34829 ft 521 kts 41°
2026-05-06 04:04 37.60741 -85.71007 34833 ft 531 kts 46°
2026-05-06 04:05 37.64587 -85.63032 34830 ft 538 kts 56°
2026-05-06 04:05 37.67728 -85.54351 34831 ft 545 kts 61°
2026-05-06 04:06 37.70575 -85.45485 34828 ft 544 kts 62°
2026-05-06 04:06 37.73369 -85.36629 34832 ft 546 kts 62°
2026-05-06 04:07 37.76182 -85.27792 34832 ft 546 kts 62°
2026-05-06 04:07 37.79029 -85.18906 34831 ft 544 kts 62°
2026-05-06 04:08 37.81876 -85.10044 34832 ft 547 kts 62°
2026-05-06 04:08 37.84716 -85.01199 34821 ft 541 kts 62°
2026-05-06 04:09 37.87534 -84.92394 34816 ft 545 kts 62°
2026-05-06 04:09 37.90375 -84.83491 34819 ft 542 kts 62°
2026-05-06 04:10 37.93201 -84.74610 34822 ft 544 kts 62°
2026-05-06 04:10 37.96017 -84.65714 34840 ft 541 kts 62°
2026-05-06 04:11 37.98799 -84.56902 34842 ft 542 kts 62°
2026-05-06 04:11 38.01582 -84.48065 34842 ft 540 kts 62°
2026-05-06 04:12 38.04357 -84.39228 34837 ft 542 kts 62°
2026-05-06 04:12 38.07147 -84.30322 34837 ft 541 kts 63°
2026-05-06 04:13 38.09916 -84.21444 34839 ft 544 kts 63°
2026-05-06 04:13 38.12683 -84.12544 34853 ft 541 kts 63°
2026-05-06 04:14 38.15433 -84.03669 34854 ft 539 kts 63°
2026-05-06 04:14 38.18169 -83.94813 34852 ft 541 kts 62°
2026-05-06 04:15 38.20906 -83.85918 34849 ft 540 kts 63°
2026-05-06 04:15 38.23632 -83.77042 34846 ft 539 kts 63°
2026-05-06 04:16 38.26366 -83.68127 34847 ft 540 kts 63°
2026-05-06 04:16 38.29074 -83.59249 34849 ft 539 kts 62°
2026-05-06 04:17 38.31768 -83.50380 34851 ft 537 kts 62°
2026-05-06 04:17 38.34450 -83.41528 34852 ft 540 kts 63°
2026-05-06 04:18 38.37134 -83.32641 34848 ft 537 kts 63°
2026-05-06 04:18 38.39811 -83.23753 34843 ft 539 kts 63°
2026-05-06 04:19 38.42483 -83.14844 34844 ft 536 kts 63°
2026-05-06 04:19 38.45153 -83.05934 34847 ft 539 kts 63°
2026-05-06 04:20 38.47796 -82.97073 34854 ft 537 kts 63°
2026-05-06 04:20 38.50442 -82.88163 34859 ft 537 kts 63°
2026-05-06 04:21 38.53088 -82.79245 34850 ft 539 kts 63°
2026-05-06 04:21 38.55722 -82.70329 34849 ft 538 kts 63°
2026-05-06 04:22 38.58352 -82.61388 34848 ft 537 kts 63°
2026-05-06 04:23 38.62293 -82.47941 34856 ft 537 kts 62°
2026-05-06 04:23 38.64914 -82.38961 34856 ft 538 kts 63°
2026-05-06 04:24 38.67500 -82.30067 34849 ft 539 kts 64°
2026-05-06 04:24 38.70113 -82.21050 34845 ft 538 kts 63°
2026-05-06 04:25 38.72733 -82.12116 34841 ft 534 kts 61°
2026-05-06 04:25 38.76140 -82.03860 34853 ft 518 kts 44°
2026-05-06 04:25 38.78464 -82.00403 34841 ft 502 kts 35°
2026-05-06 04:26 38.81026 -81.97423 34845 ft 498 kts 30°
2026-05-06 04:26 38.86423 -81.92014 34841 ft 487 kts 25°
2026-05-06 04:27 38.91965 -81.86875 34838 ft 491 kts 24°
2026-05-06 04:27 38.97482 -81.81792 34831 ft 487 kts 25°
2026-05-06 04:28 39.02981 -81.76666 34835 ft 488 kts 25°
2026-05-06 04:28 39.08485 -81.71498 34835 ft 492 kts 25°
2026-05-06 04:29 39.13993 -81.66283 34842 ft 492 kts 25°
2026-05-06 04:29 39.16747 -81.63670 34585 ft 495 kts 25°
2026-05-06 04:29 39.19527 -81.61027 34101 ft 492 kts 25°
2026-05-06 04:29 39.22251 -81.58429 33757 ft 489 kts 25°
2026-05-06 04:30 39.25005 -81.55801 33334 ft 490 kts 26°
2026-05-06 04:30 39.27720 -81.53212 32858 ft 492 kts 26°
2026-05-06 04:30 39.30472 -81.50590 32346 ft 494 kts 26°
2026-05-06 04:30 39.33239 -81.47950 31830 ft 493 kts 27°
2026-05-06 04:31 39.36004 -81.45306 31302 ft 493 kts 27°
2026-05-06 04:31 39.38735 -81.42694 30790 ft 497 kts 28°
2026-05-06 04:31 39.41528 -81.40023 30240 ft 498 kts 28°
2026-05-06 04:31 39.44323 -81.37347 29704 ft 499 kts 29°
2026-05-06 04:32 39.47102 -81.34681 29144 ft 502 kts 30°
2026-05-06 04:32 39.49900 -81.31995 28593 ft 506 kts 30°
2026-05-06 04:32 39.52726 -81.29282 28021 ft 508 kts 31°
2026-05-06 04:32 39.55566 -81.26554 27457 ft 508 kts 31°
2026-05-06 04:33 39.58406 -81.23823 26886 ft 509 kts 31°
2026-05-06 04:33 39.61248 -81.21090 26318 ft 511 kts 31°
2026-05-06 04:33 39.64071 -81.18374 25755 ft 513 kts 32°
2026-05-06 04:33 39.66942 -81.15611 25168 ft 516 kts 32°
2026-05-06 04:34 39.69803 -81.12850 24575 ft 513 kts 32°
2026-05-06 04:34 39.72653 -81.10092 23987 ft 507 kts 32°
2026-05-06 04:34 39.75477 -81.07354 23400 ft 503 kts 32°
2026-05-06 04:34 39.78261 -81.04652 22831 ft 501 kts 32°
2026-05-06 04:35 39.81039 -81.01955 22257 ft 496 kts 32°
2026-05-06 04:35 39.83787 -80.99282 21683 ft 492 kts 33°
2026-05-06 04:35 39.86501 -80.96639 21121 ft 487 kts 33°
2026-05-06 04:35 39.89192 -80.94016 20556 ft 483 kts 32°
2026-05-06 04:36 39.91858 -80.91417 20000 ft 480 kts 33°
2026-05-06 04:36 39.94525 -80.88818 19430 ft 477 kts 33°
2026-05-06 04:36 39.97130 -80.86276 18879 ft 471 kts 33°
2026-05-06 04:36 39.99747 -80.83718 18318 ft 466 kts 33°
2026-05-06 04:37 40.02293 -80.81138 17741 ft 464 kts 36°
2026-05-06 04:37 40.04698 -80.78402 17200 ft 460 kts 39°
2026-05-06 04:37 40.07013 -80.75548 16645 ft 459 kts 41°
2026-05-06 04:37 40.09275 -80.72644 16086 ft 456 kts 42°
2026-05-06 04:38 40.11507 -80.69739 15548 ft 451 kts 42°
2026-05-06 04:38 40.13710 -80.66867 15012 ft 448 kts 42°
2026-05-06 04:38 40.15895 -80.63961 14470 ft 447 kts 43°
2026-05-06 04:38 40.18037 -80.61051 13926 ft 443 kts 44°
2026-05-06 04:39 40.20130 -80.58187 13402 ft 440 kts 44°
2026-05-06 04:39 40.22237 -80.55313 12861 ft 438 kts 44°
2026-05-06 04:39 40.24360 -80.52432 12327 ft 435 kts 44°
2026-05-06 04:39 40.26343 -80.49542 11787 ft 429 kts 50°
2026-05-06 04:40 40.28024 -80.46347 11345 ft 420 kts 58°
2026-05-06 04:40 40.29434 -80.43085 10876 ft 412 kts 62°
2026-05-06 04:40 40.30714 -80.39790 10383 ft 406 kts 64°
2026-05-06 04:40 40.31942 -80.36481 9908 ft 399 kts 65°
2026-05-06 04:41 40.33135 -80.33248 9487 ft 386 kts 65°
2026-05-06 04:41 40.34287 -80.30175 9049 ft 368 kts 65°
2026-05-06 04:41 40.35391 -80.27277 8602 ft 353 kts 65°
2026-05-06 04:41 40.36481 -80.24447 8166 ft 340 kts 65°
2026-05-06 04:42 40.37531 -80.21751 7764 ft 327 kts 65°
2026-05-06 04:42 40.38556 -80.19149 7356 ft 317 kts 65°
2026-05-06 04:42 40.39526 -80.16594 6960 ft 313 kts 70°
2026-05-06 04:42 40.40134 -80.13911 6587 ft 303 kts 89°
2026-05-06 04:43 40.40188 -80.11198 6230 ft 293 kts 98°
2026-05-06 04:43 40.40049 -80.08612 5899 ft 282 kts 101°
2026-05-06 04:43 40.39890 -80.06051 5590 ft 276 kts 100°
2026-05-06 04:43 40.39770 -80.03601 5439 ft 265 kts 99°
2026-05-06 04:44 40.39685 -80.01246 5278 ft 255 kts 98°
2026-05-06 04:44 40.39617 -79.98959 5122 ft 246 kts 97°
2026-05-06 04:44 40.39565 -79.96753 4926 ft 241 kts 97°
2026-05-06 04:44 40.39514 -79.94576 4727 ft 240 kts 97°
2026-05-06 04:45 40.39463 -79.92366 4526 ft 240 kts 97°
2026-05-06 04:45 40.39611 -79.90185 4322 ft 243 kts 73°
2026-05-06 04:45 40.40609 -79.88430 4130 ft 245 kts 33°
2026-05-06 04:45 40.42112 -79.87472 3939 ft 239 kts 13°
2026-05-06 04:46 40.43715 -79.87241 3742 ft 228 kts 352°
2026-05-06 04:46 40.45273 -79.87527 3544 ft 220 kts 334°
2026-05-06 04:46 40.46608 -79.88395 3358 ft 213 kts 321°
2026-05-06 04:46 40.47822 -79.89471 3159 ft 210 kts 321°
2026-05-06 04:47 40.49221 -79.90084 3028 ft 216 kts 345°
2026-05-06 04:47 40.50447 -79.91032 3200 ft 201 kts 299°
2026-05-06 04:47 40.50774 -79.92707 2817 ft 196 kts 256°
2026-05-06 04:47 40.50304 -79.94370 2573 ft 188 kts 247°
2026-05-06 04:48 40.49895 -79.95964 2725 ft 188 kts 253°
2026-05-06 04:48 40.49591 -79.97648 2847 ft 188 kts 257°
2026-05-06 04:48 40.49427 -79.99352 3090 ft 189 kts 264°
2026-05-06 04:48 40.49364 -80.01055 3277 ft 188 kts 259°
2026-05-06 04:49 40.49080 -80.02781 3115 ft 192 kts 251°
2026-05-06 04:49 40.48684 -80.04421 2952 ft 187 kts 250°
2026-05-06 04:49 40.48343 -80.06027 2721 ft 179 kts 257°
2026-05-06 04:49 40.48207 -80.07573 2455 ft 165 kts 265°
2026-05-06 04:50 40.48214 -80.08991 2432 ft 143 kts 270°
2026-05-06 04:50 40.48300 -80.10227 2428 ft 131 kts 271°
2026-05-06 04:50 40.48356 -80.11434 2329 ft 129 kts 268°
2026-05-06 04:50 40.48378 -80.12614 2210 ft 132 kts 271°
2026-05-06 04:51 40.48415 -80.13842 2051 ft 133 kts 269°
2026-05-06 04:51 40.48424 -80.15044 1968 ft 133 kts 268°
2026-05-06 04:51 40.48440 -80.16258 1849 ft 136 kts 270°
2026-05-06 04:51 40.48454 -80.17522 1728 ft 139 kts 271°
2026-05-06 04:52 40.48497 -80.18803 1535 ft 144 kts 272°
2026-05-06 04:52 40.48535 -80.20145 1329 ft 148 kts 272°
2026-05-06 04:52 40.48572 -80.21476 1157 ft 144 kts 273°
2026-05-06 04:52 40.48611 -80.22747 1134 ft 127 kts 271°
2026-05-06 04:53 40.48637 -80.23571 1137 ft 48 kts 280°
2026-05-06 04:53 40.48719 -80.23843 1140 ft 15 kts 307°
2026-05-06 04:53 40.48798 -80.23865 1145 ft 10 kts 11°
2026-05-06 04:53 40.48859 -80.23856 1147 ft 10 kts
2026-05-06 04:54 40.48950 -80.23856 1147 ft 15 kts
2026-05-06 04:54 40.49049 -80.23882 1149 ft 13 kts 309°
2026-05-06 04:54 40.49104 -80.23987 1151 ft 13 kts 344°
2026-05-06 04:54 40.49188 -80.24004 1153 ft 12 kts 324°
2026-05-06 04:55 40.49227 -80.24091 1153 ft 9 kts 324°
2026-05-06 04:55 40.49273 -80.24133 1153 ft 0 kts 327°